Weather History for KCXY - October, 2013

Change the Weather History Date:

Wednesday, October 2, 2013

  Actual Average Record
Temperature  
Mean Temperature 70 °F -  
Max Temperature 84 °F 67 °F 87 °F (1927)
Min Temperature 55 °F 47 °F 34 °F (1899)
Cooling Degree Days 4    
Growing Degree Days 20 (Base 50)    
Moisture  
Dew Point 57 °F    
Average Humidity 67    
Maximum Humidity 93    
Minimum Humidity 39    
Precipitation  
Precipitation 0.00 in - - ()
Sea Level Pressure  
Sea Level Pressure 30.02 in    
Wind  
Wind Speed 3 mph (West)    
Max Wind Speed 12 mph    
Max Gust Speed -    
Visibility 9 miles    
Events      
Averages and records for this station are not official NWS values.
T = Trace of Precipitation, MM = Missing Value Source: NWS Daily Summary

Daily Weather History Graph

Daily Weather History Graph

Search for Another Location

Airport or City:

Trip Planner

Search our weather history database for the weather conditions in past years. The results will help you decide how hot, cold, wet, or windy it might be!

Date:

Astronomy

Oct. 02, 2013 Rise Set
Actual Time 7:05 AM EDT 6:47 PM EDT
Civil Twilight 6:37 AM EDT 7:14 PM EDT
Nautical Twilight 6:06 AM EDT 7:46 PM EDT
Astronomical Twilight 5:34 AM EDT 8:17 PM EDT
Moon 4:35 AM EDT (10/2) 5:22 PM EDT (10/2)
Length of Visible Light 12h 36m
Length of Day
11h 42m
Waning Crescent, 6% of the Moon is Illuminated
Oct 2
Waning Crescent
Oct 4
New
Oct 11
First Quarter
Oct 18
Full
Oct 26
Last Quarter

Hourly Weather History & Observations

Time (EDT) Temp. Heat Index Dew Point Humidity Pressure Visibility Wind Dir Wind Speed Gust Speed Precip Events Conditions
12:56 AM 61.0 °F - 55.9 °F 83% 30.01 in 8.0 mi Calm Calm - N/A   Clear
1:56 AM 60.1 °F - 55.9 °F 86% 30.01 in 7.0 mi Calm Calm - N/A   Clear
2:56 AM 60.1 °F - 55.0 °F 83% 30.01 in 8.0 mi West 4.6 mph - N/A   Clear
3:56 AM 57.9 °F - 55.0 °F 90% 30.01 in 7.0 mi Calm Calm - N/A   Clear
4:56 AM 59.0 °F - 55.0 °F 87% 30.01 in 7.0 mi WSW 4.6 mph - N/A   Clear
5:56 AM 59.0 °F - 55.0 °F 87% 30.02 in 6.0 mi Calm Calm - N/A   Clear
6:56 AM 55.9 °F - 54.0 °F 93% 30.04 in 5.0 mi Calm Calm - N/A   Clear
7:56 AM 57.9 °F - 55.0 °F 90% 30.05 in 5.0 mi Calm Calm - N/A   Clear
8:56 AM 64.9 °F - 57.9 °F 78% 30.06 in 9.0 mi West 4.6 mph - N/A   Clear
9:56 AM 69.1 °F - 59.0 °F 70% 30.07 in 10.0 mi West 5.8 mph - N/A   Clear
10:56 AM 75.0 °F - 60.1 °F 60% 30.06 in 10.0 mi West 6.9 mph - N/A   Clear
11:56 AM 77.0 °F - 60.1 °F 56% 30.05 in 10.0 mi WSW 9.2 mph - N/A   Partly Cloudy
12:56 PM 81.0 °F 81.6 °F 60.1 °F 49% 30.03 in 10.0 mi Variable 5.8 mph - N/A   Partly Cloudy
1:56 PM 82.0 °F 82.0 °F 57.9 °F 44% 30.01 in 10.0 mi WNW 8.1 mph - N/A   Clear
2:56 PM 84.0 °F 83.5 °F 57.9 °F 41% 30.00 in 10.0 mi WNW 9.2 mph - N/A   Clear
3:56 PM 84.9 °F 84.2 °F 57.9 °F 40% 29.98 in 10.0 mi NW 8.1 mph - N/A   Clear
4:56 PM 82.9 °F 82.4 °F 57.0 °F 41% 29.98 in 10.0 mi West 10.4 mph - N/A   Partly Cloudy
5:56 PM 82.9 °F 82.1 °F 55.9 °F 39% 29.99 in 10.0 mi NW 11.5 mph - N/A   Partly Cloudy
6:56 PM 78.1 °F - 57.0 °F 48% 30.00 in 10.0 mi WNW 6.9 mph - N/A   Clear
7:56 PM 71.1 °F - 59.0 °F 66% 30.02 in 10.0 mi Calm Calm - N/A   Clear
8:56 PM 68.0 °F - 59.0 °F 73% 30.03 in 10.0 mi Calm Calm - N/A   Clear
9:56 PM 68.0 °F - 59.0 °F 73% 30.03 in 10.0 mi Calm Calm - N/A   Clear
10:56 PM 69.1 °F - 57.9 °F 68% 30.05 in 10.0 mi WSW 6.9 mph - N/A   Clear
11:56 PM 70.0 °F - 60.1 °F 71% 30.05 in 10.0 mi Calm Calm - N/A   Clear